Tracking 18851 objects as of 25-Nov-2017
HD Live streaming from Space Station
objects crossing your sky now

FENGYUN 1C DEB

Track FENGYUN 1C DEB now!
10-day predictions


NORAD ID: 30720
Int'l Code: 1999-025ASE
Perigee: 804.8 km
Apogee: 855.9 km
Inclination: 98.9 °
Period: 101.4 minutes
Semi major axis: 7201 km
RCS: 0.0072 m2 (small)
Launch date: May 10, 1999
Source: People's Republic of China (PRC)
Launch site: Taiyaun Space Center, China (TSC)

Note: This is SATELLITE DEBRIS
aabbcc
Your satellite tracking list
Your tracking list is empty




NASA's NSSDC Master Catalog

Two Line Element Set (TLE):
1 30720U 99025ASE 17328.76792944 +.00000423 +00000-0 +21607-3 0  9994
2 30720 098.8667 059.9200 0035474 148.0894 009.6232 14.20636253556752
Source of the keplerian elements: AFSPC